Location: Newark
(52.3500°N, 175.9667°E)
Time: 21:41:06
(UTC+00:00)

Altair - Pass Details

Date: 26 April 2021
Orbit: 1501 x 1683 km, 47.2° (Epoch: 05 May)

Event Time Altitude Azimuth Distance (km) Brightness Sun altitude
Rises 14:15:55 0° 182° (S) 4,913 - -18.9°
Exits shadow 14:19:58 - 167° (SSE) 4,023 9.3 -18.6°
Reaches altitude 10° 14:20:34 10° 164° (SSE) 3,912 9.2 -18.5°
Maximum altitude 14:26:20 17° 129° (SE) 3,340 9.2 -18.0°
Drops below altitude 10° 14:32:01 10° 92° (E) 3,853 10.0 -17.5°
Sets 14:36:30 0° 75° (ENE) 4,808 10.9 -17.1°
